Regional Weather Roundup
Issued by NWS

Home | Current Version | Previous Version | Text Only | Print | Product List | Glossary On
Versions: 1 2 3 4 5 6 7 8 9 10 11 12 13 14 15 16 17 18 19 20 21 22 23 24 25 26 27 28 29 30 31 32 33 34 35 36 37 38 39 40 41 42 43 44 45 46 47 48 49 50
182
ASUS45 KBOI 100510
RWRID

IDAHO REGIONAL WEATHER ROUNDUP
NATIONAL WEATHER SERVICE BOISE ID
1000 PM MST FRI DEC 09 2016

NOTE: "FAIR" INDICATES FEW OR NO CLOUDS BELOW 12000 FEET
WITH NO SIGNIFICANT WEATHER AND/OR OBSTRUCTIONS TO VISIBILITY

IDZ012-014-100600-
SOUTHWEST IDAHO


CITY           SKY/WX    TMP DP  RH WIND       PRES   REMARKS
BOISE          FOG       30  30 100 W5        30.00S VSB 1   WCI  25
CALDWELL       LGT SNOW  30  28  92 CALM      30.03S FOG
MOUNTAIN HOME  MIX PCPN  31  31 100 S5        29.99S VSB 1/2 WCI  27
$$

IDZ016-017-100600-
SOUTHCENTRAL IDAHO


CITY           SKY/WX    TMP DP  RH WIND       PRES   REMARKS
BURLEY         LGT RAIN  39  33  79 SW10      29.98S WCI  32
JEROME         LGT RAIN  37  35  92 NE8       29.98S WCI  31
TWIN FALLS     CLOUDY    42  31  64 S10       29.96F
$$

IDZ019>023-100600-
SOUTHEAST IDAHO


CITY           SKY/WX    TMP DP  RH WIND       PRES   REMARKS
IDAHO FALLS    FRZ RAIN  27  24  89 N3        30.00S FOG
POCATELLO      LGT RAIN  38  33  82 S16       30.00F WCI  29
REXBURG        CLOUDY    26  24  92 N3        30.00F
$$

IDZ006-010-011-018-031-032-100600-
CENTRAL IDAHO MOUNTAINS


CITY           SKY/WX    TMP DP  RH WIND       PRES   REMARKS
MCCALL         LGT SNOW  31  28  89 CALM      29.88F FOG
STANLEY          N/A     33  31  92 SE8       29.91F WCI  26
SALMON         CLOUDY    18  16  93 CALM      29.98F
CHALLIS        FLURRIES  20  19  96 CALM      29.92F
$$

IDZ002-004-006-007-026-100600-
NORTHERN IDAHO


CITY           SKY/WX    TMP DP  RH WIND       PRES   REMARKS
LEWISTON       CLOUDY    26  23  88 CALM      29.98S
LOWELL           N/A     28  25  88 CALM      30.03F
COEUR D`ALENE  LGT SNOW  17  14  88 N14       29.96S FOG     WCI   3
MULLAN PASS    LGT SNOW  18  15  88 SW5       29.75F VSB 3/4 WCI  11
$$




USA.gov is the U.S. government's official web portal to all federal, state and local government web resources and services.